Total_Precipitation_Accumulation
1.41 1.53 1.89 1.80 1.74 1.96 2.20 2.25 2.46 2.57 2.35 2.25 2.24 2.19 2.25 2.62 2.71 2.61 2.55 2.72 3.16 3.70 4.08 4.21 4.26 4.19 4.16 3.99 3.34 2.82 2.49 2.44 2.44 2.42 2.31 2.23 2.29 2.50 2.58 2.72 2.74 2.05 1.94
1.29 1.45 1.69 1.71 1.68 1.93 2.17 2.27 2.39 2.47 2.35 2.23 2.14 2.18 2.38 2.67 2.65 2.54 2.51 2.72 3.00 3.45 3.69 3.60 3.57 3.43 3.28 3.09 2.77 2.56 2.53 2.60 2.73 2.78 2.86 2.65 2.70 2.77 2.66 2.67 2.76 2.03 1.97
1.27 1.31 1.43 1.60 1.54 1.73 1.91 1.96 2.06 2.28 2.44 2.38 2.10 2.13 2.38 2.62 2.77 2.85 2.84 2.88 3.06 3.41 3.58 3.45 3.21 3.04 2.87 2.75 2.51 2.44 2.45 2.69 3.00 3.25 3.55 2.69 2.23 2.74 2.67 2.62 2.33 1.88 1.85
0.97 1.00 1.19 1.45 1.49 1.54 1.68 1.77 1.87 2.02 2.18 2.19 2.03 1.99 2.23 2.53 2.73 2.89 2.94 2.90 3.03 3.34 3.67 3.54 3.26 3.06 2.85 2.61 2.46 2.46 2.56 2.84 3.09 3.51 3.35 2.39 1.73 2.13 2.37 2.31 2.01 1.69 1.63
0.84 0.92 1.27 1.42 1.42 1.43 1.49 1.59 1.74 1.81 1.87 1.92 1.89 1.98 2.24 2.54 2.77 2.86 2.80 2.81 2.90 3.15 3.43 3.47 3.10 2.71 2.52 2.42 2.50 2.62 2.75 3.02 3.27 3.19 2.47 2.46 2.36 2.27 2.12 2.04 1.89 1.65 1.50
0.93 1.00 1.23 1.40 1.32 1.35 1.41 1.46 1.61 1.69 1.78 1.89 1.93 1.99 2.31 2.55 2.69 2.70 2.51 2.48 2.65 2.80 3.02 3.06 2.75 2.37 2.30 2.40 2.57 2.71 2.92 3.16 3.11 2.37 2.05 2.12 1.99 2.12 2.10 2.02 1.82 1.64 1.48
0.87 1.06 1.23 1.29 1.17 1.16 1.20 1.31 1.54 1.67 1.78 1.95 1.99 2.14 2.38 2.60 2.67 2.65 2.48 2.60 2.60 2.71 2.87 2.72 2.53 2.41 2.55 2.61 2.67 2.72 2.99 3.14 2.52 2.02 2.09 2.26 1.97 2.01 2.26 2.25 1.95 1.66 1.36
0.86 1.02 1.22 1.24 1.11 1.09 1.19 1.33 1.49 1.65 1.77 1.93 1.98 2.11 2.40 2.65 2.61 2.41 2.39 2.55 2.47 2.62 2.69 2.53 2.33 2.30 2.47 2.61 2.61 2.71 2.87 2.75 2.05 1.73 1.83 1.97 1.74 1.96 2.37 2.37 2.19 1.94 1.55
0.89 1.01 1.13 1.18 1.12 1.11 1.24 1.46 1.61 1.69 1.83 1.94 1.92 2.04 2.41 2.56 2.52 2.38 2.34 2.41 2.45 2.58 2.42 2.25 2.24 2.17 2.24 2.50 2.56 2.72 2.78 2.66 2.03 1.83 1.61 1.72 1.70 2.03 2.40 2.31 2.17 2.06 1.71
1.05 1.14 1.11 1.16 1.07 1.05 1.20 1.59 1.83 1.88 1.98 2.06 2.07 2.21 2.59 2.67 2.61 2.44 2.23 2.31 2.36 2.38 2.31 2.25 2.21 2.20 2.27 2.53 2.77 2.93 2.84 2.37 1.87 1.74 1.71 1.61 1.80 2.23 2.54 2.41 2.30 2.20 1.93
1.28 1.38 1.30 1.33 1.15 1.18 1.26 1.56 1.90 2.01 2.14 2.33 2.44 2.59 2.96 3.11 2.84 2.79 2.44 2.56 2.53 2.50 2.57 2.58 2.50 2.51 2.47 2.69 3.02 3.04 2.67 2.24 2.24 1.92 1.77 1.71 2.05 2.48 2.70 2.73 2.59 2.46 2.26
1.53 1.36 1.37 1.45 1.36 1.46 1.46 1.73 2.25 2.29 2.46 2.74 2.85 2.82 3.10 3.23 3.25 2.80 2.93 3.23 3.24 3.25 3.29 3.34 3.33 3.13 2.70 2.57 3.05 3.35 2.73 2.51 2.39 2.04 1.83 1.95 2.28 2.66 2.81 2.88 2.61 2.48 2.37
1.57 1.41 1.52 1.64 1.77 1.84 2.10 1.91 2.07 2.47 2.76 2.92 3.08 3.23 3.36 3.08 2.99 2.92 3.20 3.64 3.71 3.65 3.60 3.65 3.68 3.23 3.01 3.05 3.23 3.25 2.91 2.79 2.53 2.15 2.30 2.48 2.67 3.05 3.16 2.95 2.69 2.53 2.34
2.05 2.03 1.99 2.18 2.42 2.43 2.22 2.17 2.04 2.15 2.40 2.80 3.11 3.06 3.22 3.47 3.42 3.19 3.30 3.41 3.53 3.61 3.89 3.65 3.60 3.56 3.48 3.23 3.09 3.18 3.01 2.88 2.73 2.69 2.93 2.99 2.98 3.32 3.53 3.20 2.91 2.74 2.53
2.82 2.97 2.92 2.91 2.87 2.92 2.92 2.78 2.34 2.47 2.43 2.56 3.02 3.10 3.11 3.47 3.63 3.52 3.43 3.59 3.27 3.28 3.67 3.83 3.53 3.59 3.68 3.48 3.19 3.10 3.14 3.00 2.97 2.86 3.02 3.22 3.01 3.10 3.45 3.40 3.25 3.01 2.85
3.57 4.06 3.85 3.69 3.46 3.36 3.41 3.37 3.29 2.94 2.82 2.66 2.98 3.11 3.22 3.53 3.72 3.69 3.58 3.58 3.19 3.05 3.29 3.50 3.43 3.62 3.60 3.52 3.15 2.94 2.91 3.10 3.11 2.89 2.97 3.28 3.18 2.86 3.02 3.28 3.48 3.49 3.29
4.19 4.79 4.59 4.46 4.46 4.26 4.17 3.84 3.45 3.17 2.98 3.18 3.36 3.50 3.54 3.58 3.84 3.90 3.76 3.46 3.26 3.27 3.36 3.35 3.40 3.74 3.53 3.38 3.20 3.11 3.04 3.08 2.94 2.86 2.90 3.12 2.86 2.69 2.68 2.78 3.13 3.45 3.70
4.35 4.82 5.20 4.87 5.27 5.22 4.99 4.59 4.12 3.81 3.79 3.73 3.64 3.79 3.58 3.49 3.61 3.90 3.58 3.23 3.34 3.45 3.55 3.56 3.54 3.72 3.77 3.84 3.72 3.49 3.21 3.10 2.54 2.48 2.56 2.65 2.79 2.42 2.55 2.74 2.85 3.02 3.59
4.61 5.18 5.69 5.90 6.00 5.60 5.27 4.98 4.79 4.47 4.18 3.75 3.36 3.29 3.18 2.94 2.91 3.08 2.94 2.90 2.94 3.09 3.02 2.81 3.20 3.44 3.66 3.86 3.59 3.42 3.01 2.86 2.60 2.45 2.50 2.28 2.43 2.46 2.49 2.56 2.74 2.79 3.30
4.72 5.59 6.07 6.26 5.88 5.47 5.11 4.74 4.67 4.31 3.93 3.57 3.16 2.89 2.70 2.66 2.51 2.69 2.51 2.49 2.65 2.89 2.91 2.96 3.20 3.14 3.08 3.27 2.94 2.93 2.84 2.59 2.58 2.53 2.35 2.27 2.26 2.22 2.37 2.55 2.77 2.43 2.93
4.79 5.76 6.20 6.09 5.51 5.01 4.58 4.17 3.93 3.63 3.36 3.22 2.90 2.53 2.48 2.46 2.49 2.76 2.48 2.71 2.69 2.77 2.78 2.68 2.79 2.76 2.51 2.66 3.09 3.03 2.69 2.45 2.47 2.39 2.29 2.37 2.15 2.16 2.39 2.66 2.86 2.90 2.62
4.14 4.91 5.30 5.04 4.44 3.80 3.53 3.46 3.39 3.34 2.98 2.75 2.65 2.58 2.30 2.32 2.39 2.46 2.58 2.39 2.41 2.56 2.49 2.46 2.73 2.68 2.37 2.46 2.91 3.13 2.98 3.00 2.74 2.13 2.12 2.26 2.22 2.28 2.37 2.44 2.76 3.00 2.84
3.61 3.60 3.76 3.72 3.29 2.96 2.86 2.85 2.88 3.04 2.82 2.53 2.45 2.38 2.14 2.06 2.03 2.17 2.25 2.36 2.46 2.34 2.39 2.43 2.46 2.56 2.50 2.34 2.42 2.97 2.92 2.81 2.67 2.39 2.07 2.03 2.20 2.43 2.42 2.49 2.49 2.60 2.67
2.71 2.51 2.53 2.67 2.59 2.56 2.46 2.47 2.39 2.27 2.26 2.17 2.15 2.11 2.06 1.93 1.85 1.77 1.89 2.10 2.28 2.25 2.47 2.20 2.24 2.46 2.54 2.29 2.30 2.40 2.43 2.52 2.64 2.46 2.11 1.92 1.98 2.09 2.25 2.22 2.39 2.55 2.61
1.81 1.83 2.03 2.34 2.46 2.38 2.31 2.41 2.42 2.14 2.02 1.94 1.98 2.10 2.04 1.92 1.78 1.63 1.72 1.94 2.10 2.17 2.29 2.30 2.54 2.44 2.33 2.28 2.24 2.33 2.41 2.43 2.30 2.34 2.26 2.02 1.92 1.78 1.90 2.09 2.32 2.54 2.54
1.25 1.37 1.61 2.08 2.30 2.20 2.14 2.17 2.14 2.09 2.07 1.98 1.92 1.97 1.94 1.86 1.86 1.84 1.79 1.91 1.93 1.97 2.06 2.17 2.38 2.38 2.32 2.33 2.19 2.11 2.31 2.41 2.40 2.46 2.27 2.03 1.89 1.68 1.68 1.83 2.18 2.52 2.62